HUN28M EKCH-EFHK

Flight info

Callsign HUN28M
Flight time 1h 18m
Altitude 37000
Route KEMAX T408 OTVEB DCT ALAMI DCT OKEVU DCT EVADI Y370 DIVAM
Aircraft A21N/M-SDE2E3FGHIJ1RWXY/LB1

Departure

Time 2026-04-23 16:30
Airport Copenhagen Kastrup Airport (EKCH)

Arrival

Time 2026-04-23 17:49
Airport Helsinki Vantaa Airport (EFHK)
Time Latitude Longitude Altitude Speed Heading
2026-04-23 15:54 55.62895 12.63805 23 ft 0 kts 12°
2026-04-23 16:18 55.62872 12.63793 22 ft 4 kts 30°
2026-04-23 16:18 55.62857 12.63764 23 ft 4 kts 82°
2026-04-23 16:19 55.62859 12.63727 22 ft 4 kts 95°
2026-04-23 16:19 55.62858 12.63679 22 ft 4 kts 86°
2026-04-23 16:19 55.62858 12.63666 22 ft 0 kts 86°
2026-04-23 16:21 55.62858 12.63675 22 ft 2 kts 86°
2026-04-23 16:22 55.62858 12.63710 22 ft 4 kts 97°
2026-04-23 16:22 55.62852 12.63773 22 ft 6 kts 103°
2026-04-23 16:22 55.62839 12.63864 22 ft 9 kts 104°
2026-04-23 16:22 55.62802 12.63955 24 ft 10 kts 162°
2026-04-23 16:23 55.62731 12.63911 22 ft 12 kts 212°
2026-04-23 16:23 55.62665 12.63854 22 ft 10 kts 172°
2026-04-23 16:23 55.62616 12.63950 24 ft 12 kts 123°
2026-04-23 16:23 55.62569 12.64075 24 ft 13 kts 123°
2026-04-23 16:24 55.62516 12.64216 24 ft 14 kts 122°
2026-04-23 16:24 55.62455 12.64369 22 ft 16 kts 128°
2026-04-23 16:24 55.62397 12.64449 22 ft 11 kts 176°
2026-04-23 16:24 55.62321 12.64418 22 ft 12 kts 195°
2026-04-23 16:25 55.62233 12.64399 21 ft 13 kts 170°
2026-04-23 16:25 55.62137 12.64430 22 ft 15 kts 169°
2026-04-23 16:25 55.62030 12.64466 22 ft 16 kts 169°
2026-04-23 16:25 55.61913 12.64504 22 ft 18 kts 169°
2026-04-23 16:26 55.61788 12.64545 22 ft 19 kts 169°
2026-04-23 16:26 55.61702 12.64573 22 ft 10 kts 176°
2026-04-23 16:26 55.61632 12.64519 24 ft 12 kts 213°
2026-04-23 16:26 55.61557 12.64433 23 ft 14 kts 213°
2026-04-23 16:27 55.61473 12.64337 23 ft 15 kts 213°
2026-04-23 16:27 55.61382 12.64231 23 ft 16 kts 213°
2026-04-23 16:27 55.61283 12.64117 22 ft 18 kts 213°
2026-04-23 16:27 55.61178 12.63997 22 ft 19 kts 213°
2026-04-23 16:28 55.61066 12.63868 23 ft 20 kts 213°
2026-04-23 16:28 55.60948 12.63732 22 ft 21 kts 212°
2026-04-23 16:28 55.60858 12.63631 22 ft 10 kts 213°
2026-04-23 16:28 55.60792 12.63593 24 ft 11 kts 156°
2026-04-23 16:29 55.60732 12.63698 23 ft 13 kts 131°
2026-04-23 16:29 55.60678 12.63807 24 ft 7 kts 130°
2026-04-23 16:29 55.60689 12.63891 27 ft 9 kts 44°
2026-04-23 16:29 55.60821 12.64096 25 ft 58 kts 40°
2026-04-23 16:30 55.61308 12.64849 24 ft 125 kts 40°
2026-04-23 16:30 55.62093 12.66070 127 ft 162 kts 39°
2026-04-23 16:30 55.62913 12.67376 811 ft 158 kts 39°
2026-04-23 16:30 55.63754 12.68700 1343 ft 171 kts 38°
2026-04-23 16:31 55.64695 12.70163 1741 ft 193 kts 38°
2026-04-23 16:31 55.65756 12.71784 2333 ft 209 kts 36°
2026-04-23 16:31 55.66930 12.73518 2799 ft 233 kts 36°
2026-04-23 16:31 55.68226 12.75447 3384 ft 250 kts 36°
2026-04-23 16:32 55.69575 12.77459 4221 ft 256 kts 36°
2026-04-23 16:32 55.70946 12.79505 5130 ft 259 kts 36°
2026-04-23 16:32 55.72331 12.81571 6021 ft 261 kts 36°
2026-04-23 16:32 55.73726 12.83654 6887 ft 264 kts 36°
2026-04-23 16:33 55.75119 12.85763 7714 ft 268 kts 37°
2026-04-23 16:33 55.76535 12.87990 8554 ft 273 kts 37°
2026-04-23 16:33 55.77965 12.90252 9402 ft 277 kts 38°
2026-04-23 16:33 55.79414 12.92546 10236 ft 281 kts 37°
2026-04-23 16:34 55.80926 12.94929 10656 ft 301 kts 37°
2026-04-23 16:34 55.82557 12.97492 10979 ft 323 kts 37°
2026-04-23 16:34 55.84301 13.00232 11285 ft 344 kts 37°
2026-04-23 16:34 55.86092 13.03066 11885 ft 352 kts 37°
2026-04-23 16:35 55.87935 13.05992 12641 ft 356 kts 37°
2026-04-23 16:35 55.89797 13.08947 13405 ft 359 kts 37°
2026-04-23 16:35 55.91672 13.11924 14158 ft 362 kts 37°
2026-04-23 16:35 55.93562 13.14935 14889 ft 365 kts 37°
2026-04-23 16:36 55.95466 13.17968 15595 ft 368 kts 37°
2026-04-23 16:36 55.97386 13.21022 16262 ft 371 kts 37°
2026-04-23 16:36 55.99297 13.24065 16901 ft 373 kts 37°
2026-04-23 16:36 56.01240 13.27167 17515 ft 376 kts 37°
2026-04-23 16:37 56.03204 13.30303 18102 ft 379 kts 36°
2026-04-23 16:37 56.05179 13.33469 18686 ft 381 kts 37°
2026-04-23 16:37 56.07158 13.36651 19272 ft 383 kts 37°
2026-04-23 16:37 56.09160 13.39864 19826 ft 387 kts 37°
2026-04-23 16:38 56.11143 13.43050 20357 ft 390 kts 37°
2026-04-23 16:38 56.13102 13.46486 20905 ft 396 kts 43°
2026-04-23 16:38 56.14893 13.50319 21448 ft 401 kts 45°
2026-04-23 16:38 56.16660 13.54218 21962 ft 404 kts 45°
2026-04-23 16:39 56.18416 13.58115 22479 ft 407 kts 45°
2026-04-23 16:39 56.20208 13.62077 23013 ft 409 kts 45°
2026-04-23 16:39 56.22009 13.66067 23494 ft 412 kts 45°
2026-04-23 16:39 56.23818 13.70089 23985 ft 415 kts 45°
2026-04-23 16:40 56.25636 13.74141 24452 ft 417 kts 45°
2026-04-23 16:40 56.27466 13.78210 24904 ft 419 kts 45°
2026-04-23 16:40 56.29290 13.82266 25343 ft 422 kts 45°
2026-04-23 16:40 56.31141 13.86390 25787 ft 424 kts 45°
2026-04-23 16:41 56.32997 13.90541 26220 ft 426 kts 45°
2026-04-23 16:41 56.34860 13.94724 26622 ft 428 kts 45°
2026-04-23 16:41 56.36731 13.98927 27005 ft 430 kts 45°
2026-04-23 16:41 56.38597 14.03099 27383 ft 432 kts 45°
2026-04-23 16:42 56.40487 14.07346 27761 ft 434 kts 45°
2026-04-23 16:42 56.42374 14.11618 28111 ft 436 kts 45°
2026-04-23 16:42 56.44282 14.15916 28448 ft 438 kts 45°
2026-04-23 16:42 56.46194 14.20229 28807 ft 438 kts 45°
2026-04-23 16:43 56.48098 14.24549 29251 ft 437 kts 45°
2026-04-23 16:43 56.49966 14.28786 29688 ft 435 kts 45°
2026-04-23 16:43 56.51848 14.33070 30126 ft 433 kts 45°
2026-04-23 16:43 56.53727 14.37347 30504 ft 433 kts 45°
2026-04-23 16:44 56.55603 14.41626 30863 ft 432 kts 45°
2026-04-23 16:44 56.56839 14.44449 31119 ft 432 kts 45°
2026-04-23 16:44 56.58711 14.48728 31470 ft 431 kts 45°
2026-04-23 16:44 56.60573 14.53003 31815 ft 431 kts 45°
2026-04-23 16:45 56.62436 14.57284 32130 ft 431 kts 45°
2026-04-23 16:45 56.64297 14.61560 32436 ft 431 kts 44°
2026-04-23 16:45 56.66150 14.65833 32768 ft 430 kts 44°
2026-04-23 16:45 56.67979 14.70053 33085 ft 429 kts 44°
2026-04-23 16:46 56.69828 14.74328 33370 ft 429 kts 44°
2026-04-23 16:46 56.71671 14.78607 33649 ft 429 kts 44°
2026-04-23 16:46 56.73517 14.82894 33912 ft 428 kts 44°
2026-04-23 16:46 56.75356 14.87167 34194 ft 427 kts 44°
2026-04-23 16:47 56.77188 14.91436 34453 ft 426 kts 44°
2026-04-23 16:47 56.79018 14.95707 34711 ft 426 kts 44°
2026-04-23 16:47 56.80815 14.99909 34969 ft 424 kts 44°
2026-04-23 16:47 56.82631 15.04167 35203 ft 424 kts 44°
2026-04-23 16:48 56.84443 15.08422 35417 ft 423 kts 44°
2026-04-23 16:48 56.86254 15.12677 35617 ft 423 kts 44°
2026-04-23 16:48 56.88060 15.16923 35808 ft 422 kts 44°
2026-04-23 16:48 56.89858 15.21171 36015 ft 421 kts 44°
2026-04-23 16:49 56.91633 15.25370 36205 ft 420 kts 44°
2026-04-23 16:49 56.93427 15.29619 36379 ft 420 kts 44°
2026-04-23 16:49 56.95213 15.33856 36539 ft 420 kts 44°
2026-04-23 16:49 56.96994 15.38087 36745 ft 418 kts 44°
2026-04-23 16:50 56.98765 15.42303 36990 ft 415 kts 44°
2026-04-23 16:50 57.00494 15.46423 37082 ft 411 kts 44°
2026-04-23 16:50 57.03965 15.54727 37068 ft 409 kts 44°
2026-04-23 16:51 57.07441 15.63054 37054 ft 409 kts 44°
2026-04-23 16:51 57.10879 15.71325 37050 ft 409 kts 44°
2026-04-23 16:52 57.14324 15.79653 37043 ft 408 kts 44°
2026-04-23 16:52 57.17770 15.88009 37046 ft 408 kts 44°
2026-04-23 16:53 57.21184 15.96316 37050 ft 408 kts 44°
2026-04-23 16:53 57.24621 16.04700 37051 ft 407 kts 44°
2026-04-23 16:54 57.28017 16.13024 37052 ft 405 kts 44°
2026-04-23 16:54 57.31399 16.21338 37047 ft 405 kts 44°
2026-04-23 16:55 57.34781 16.29681 37041 ft 404 kts 44°
2026-04-23 16:55 57.38159 16.38040 37038 ft 404 kts 44°
2026-04-23 16:56 57.41514 16.46364 37039 ft 405 kts 44°
2026-04-23 16:56 57.44890 16.54779 37041 ft 405 kts 44°
2026-04-23 16:57 57.48234 16.63137 37040 ft 405 kts 44°
2026-04-23 16:57 57.51585 16.71555 37034 ft 405 kts 44°
2026-04-23 16:58 57.54942 16.80005 37030 ft 405 kts 44°
2026-04-23 16:58 57.58280 16.88454 37030 ft 405 kts 44°
2026-04-23 16:59 57.61589 16.96902 37039 ft 406 kts 45°
2026-04-23 16:59 57.64912 17.05391 37039 ft 404 kts 44°
2026-04-23 17:00 57.68240 17.13876 37038 ft 404 kts 44°
2026-04-23 17:00 57.71544 17.22308 37036 ft 404 kts 44°
2026-04-23 17:01 57.74855 17.30799 37040 ft 404 kts 44°
2026-04-23 17:01 57.78167 17.39340 37042 ft 404 kts 44°
2026-04-23 17:02 57.81439 17.47866 37042 ft 404 kts 44°
2026-04-23 17:02 57.84717 17.56424 37038 ft 403 kts 44°
2026-04-23 17:03 57.87999 17.65006 37036 ft 404 kts 44°
2026-04-23 17:03 57.91268 17.73578 37041 ft 405 kts 44°
2026-04-23 17:04 57.94556 17.82202 37038 ft 405 kts 44°
2026-04-23 17:04 57.97829 17.90829 37035 ft 405 kts 44°
2026-04-23 17:05 58.01080 17.99431 37042 ft 404 kts 44°
2026-04-23 17:05 58.04333 18.08108 37051 ft 405 kts 44°
2026-04-23 17:06 58.07591 18.16779 37025 ft 404 kts 44°
2026-04-23 17:06 58.10843 18.25395 37021 ft 405 kts 44°
2026-04-23 17:07 58.14094 18.34093 37020 ft 405 kts 44°
2026-04-23 17:07 58.17343 18.42854 37021 ft 405 kts 44°
2026-04-23 17:08 58.20583 18.51625 37020 ft 407 kts 45°
2026-04-23 17:08 58.23820 18.60430 37019 ft 406 kts 45°
2026-04-23 17:09 58.27033 18.69172 37011 ft 406 kts 45°
2026-04-23 17:09 58.30271 18.78035 37010 ft 407 kts 45°
2026-04-23 17:10 58.33501 18.86900 37011 ft 408 kts 45°
2026-04-23 17:10 58.36729 18.95799 37011 ft 409 kts 45°
2026-04-23 17:11 58.39930 19.04663 37010 ft 407 kts 45°
2026-04-23 17:11 58.43146 19.13581 37003 ft 407 kts 45°
2026-04-23 17:12 58.46348 19.22510 37001 ft 408 kts 45°
2026-04-23 17:12 58.49529 19.31404 37000 ft 408 kts 46°
2026-04-23 17:13 58.52728 19.40392 37000 ft 408 kts 46°
2026-04-23 17:13 58.55930 19.49422 37000 ft 410 kts 46°
2026-04-23 17:14 58.59111 19.58416 37000 ft 409 kts 46°
2026-04-23 17:14 58.62305 19.67488 37001 ft 410 kts 46°
2026-04-23 17:15 58.65491 19.76587 37000 ft 410 kts 46°
2026-04-23 17:15 58.68660 19.85650 37002 ft 410 kts 46°
2026-04-23 17:16 58.71829 19.94756 36989 ft 409 kts 46°
2026-04-23 17:16 58.74997 20.03902 36973 ft 409 kts 46°
2026-04-23 17:17 58.78128 20.12967 36972 ft 409 kts 46°
2026-04-23 17:17 58.81278 20.22120 36970 ft 409 kts 46°
2026-04-23 17:18 58.85986 20.35868 36965 ft 408 kts 47°
2026-04-23 17:19 58.89107 20.45031 36959 ft 408 kts 47°
2026-04-23 17:19 58.92225 20.54219 36959 ft 408 kts 47°
2026-04-23 17:20 58.95337 20.63426 36961 ft 409 kts 47°
2026-04-23 17:21 59.01527 20.81853 36956 ft 408 kts 47°
2026-04-23 17:21 59.06123 20.95831 36959 ft 409 kts 49°
2026-04-23 17:22 59.10594 21.10021 36952 ft 409 kts 49°
2026-04-23 17:23 59.15021 21.24165 36942 ft 409 kts 49°
2026-04-23 17:23 59.17959 21.33632 36653 ft 405 kts 49°
2026-04-23 17:24 59.19422 21.38333 36373 ft 406 kts 49°
2026-04-23 17:24 59.20890 21.43056 36114 ft 407 kts 49°
2026-04-23 17:24 59.23832 21.52554 35613 ft 413 kts 49°
2026-04-23 17:25 59.26796 21.62205 35115 ft 414 kts 49°
2026-04-23 17:25 59.28281 21.67055 34869 ft 413 kts 49°
2026-04-23 17:26 59.31217 21.76671 33931 ft 410 kts 49°
2026-04-23 17:26 59.34146 21.86285 32612 ft 411 kts 49°
2026-04-23 17:27 59.37082 21.95952 31127 ft 415 kts 50°
2026-04-23 17:27 59.38536 22.00759 30448 ft 415 kts 50°
2026-04-23 17:27 59.40006 22.05634 29813 ft 413 kts 50°
2026-04-23 17:27 59.41464 22.10478 29187 ft 411 kts 50°
2026-04-23 17:28 59.42915 22.15305 28575 ft 409 kts 50°
2026-04-23 17:28 59.44354 22.20103 27985 ft 406 kts 51°
2026-04-23 17:28 59.45783 22.24876 27396 ft 404 kts 51°
2026-04-23 17:28 59.47206 22.29638 26777 ft 402 kts 51°
2026-04-23 17:29 59.48618 22.34368 26164 ft 400 kts 51°
2026-04-23 17:29 59.50025 22.39092 25570 ft 398 kts 51°
2026-04-23 17:29 59.52784 22.48444 24387 ft 394 kts 51°
2026-04-23 17:30 59.53713 22.51593 23980 ft 393 kts 51°
2026-04-23 17:30 59.56878 22.62390 22623 ft 389 kts 51°
2026-04-23 17:30 59.58232 22.67019 22030 ft 388 kts 51°
2026-04-23 17:31 59.59581 22.71622 21426 ft 387 kts 51°
2026-04-23 17:31 59.60911 22.76155 20837 ft 386 kts 51°
2026-04-23 17:31 59.62252 22.80739 20262 ft 384 kts 51°
2026-04-23 17:31 59.63579 22.85286 19707 ft 379 kts 51°
2026-04-23 17:32 59.64888 22.89775 19164 ft 373 kts 52°
2026-04-23 17:32 59.66171 22.94193 18660 ft 366 kts 51°
2026-04-23 17:32 59.67006 22.97077 18337 ft 362 kts 51°
2026-04-23 17:32 59.68245 23.01359 17872 ft 354 kts 51°
2026-04-23 17:33 59.69455 23.05554 17424 ft 348 kts 51°
2026-04-23 17:33 59.70661 23.09707 16949 ft 346 kts 51°
2026-04-23 17:33 59.71838 23.13782 16501 ft 343 kts 51°
2026-04-23 17:33 59.73022 23.17897 16049 ft 341 kts 52°
2026-04-23 17:34 59.74196 23.21996 15593 ft 340 kts 52°
2026-04-23 17:34 59.75355 23.26040 15168 ft 336 kts 52°
2026-04-23 17:34 59.77616 23.33953 14475 ft 319 kts 51°
2026-04-23 17:35 59.78676 23.37677 14243 ft 308 kts 52°
2026-04-23 17:35 59.80761 23.44996 13400 ft 302 kts 52°
2026-04-23 17:35 59.81790 23.48609 12957 ft 298 kts 52°
2026-04-23 17:36 59.82805 23.52190 12487 ft 298 kts 52°
2026-04-23 17:36 59.83824 23.55795 12061 ft 297 kts 53°
2026-04-23 17:36 59.84835 23.59373 11657 ft 296 kts 53°
2026-04-23 17:36 59.85845 23.62953 11255 ft 296 kts 53°
2026-04-23 17:37 59.86854 23.66542 10912 ft 297 kts 54°
2026-04-23 17:37 59.87851 23.70097 10669 ft 298 kts 54°
2026-04-23 17:37 59.89874 23.77328 10257 ft 298 kts 55°
2026-04-23 17:38 59.90878 23.80923 10061 ft 292 kts 56°
2026-04-23 17:38 59.91675 23.84615 9898 ft 287 kts 66°
2026-04-23 17:38 59.92268 23.88303 9636 ft 282 kts 67°
2026-04-23 17:38 59.92851 23.92024 9272 ft 281 kts 68°
2026-04-23 17:39 59.93434 23.95731 8908 ft 280 kts 68°
2026-04-23 17:39 59.94020 23.99459 8550 ft 282 kts 68°
2026-04-23 17:39 59.94823 24.02981 8145 ft 276 kts 51°
2026-04-23 17:39 59.96005 24.05970 7745 ft 272 kts 46°
2026-04-23 17:40 59.97207 24.08825 7359 ft 272 kts 46°
2026-04-23 17:40 59.98413 24.11722 6984 ft 270 kts 47°
2026-04-23 17:40 59.99605 24.14618 6611 ft 269 kts 47°
2026-04-23 17:40 60.00781 24.17497 6288 ft 266 kts 47°
2026-04-23 17:41 60.01943 24.20359 5981 ft 263 kts 47°
2026-04-23 17:41 60.04235 24.26028 5389 ft 261 kts 48°
2026-04-23 17:41 60.05378 24.28865 5103 ft 261 kts 48°
2026-04-23 17:42 60.07636 24.34475 4496 ft 260 kts 49°
2026-04-23 17:42 60.08768 24.37309 4179 ft 260 kts 49°
2026-04-23 17:42 60.09902 24.40145 3867 ft 260 kts 49°
2026-04-23 17:43 60.11030 24.42960 3556 ft 257 kts 50°
2026-04-23 17:43 60.12144 24.45750 3249 ft 255 kts 50°
2026-04-23 17:43 60.13252 24.48531 2943 ft 255 kts 50°
2026-04-23 17:43 60.14360 24.51323 2656 ft 254 kts 50°
2026-04-23 17:44 60.15443 24.54052 2369 ft 252 kts 50°
2026-04-23 17:44 60.16513 24.56739 2272 ft 240 kts 50°
2026-04-23 17:44 60.18500 24.61731 2274 ft 224 kts 50°
2026-04-23 17:45 60.19468 24.64174 2282 ft 219 kts 50°
2026-04-23 17:45 60.21304 24.68625 2278 ft 201 kts 44°
2026-04-23 17:45 60.22256 24.70661 2298 ft 201 kts 45°
2026-04-23 17:46 60.24083 24.74638 2245 ft 187 kts 45°
2026-04-23 17:46 60.24945 24.76522 2014 ft 180 kts 45°
2026-04-23 17:46 60.25785 24.78355 1749 ft 173 kts 45°
2026-04-23 17:47 60.26565 24.80062 1515 ft 163 kts 45°
2026-04-23 17:47 60.27318 24.81708 1297 ft 156 kts 44°
2026-04-23 17:47 60.28721 24.84778 910 ft 146 kts 44°
2026-04-23 17:48 60.29414 24.86293 718 ft 146 kts 45°
2026-04-23 17:48 60.30095 24.87784 523 ft 146 kts 45°
2026-04-23 17:48 60.30784 24.89297 329 ft 146 kts 45°
2026-04-23 17:48 60.31477 24.90784 156 ft 144 kts 47°
2026-04-23 17:49 60.32027 24.91996 159 ft 77 kts 47°
2026-04-23 17:49 60.32188 24.92402 170 ft 26 kts 63°
2026-04-23 17:49 60.32246 24.92760 173 ft 28 kts 76°
2026-04-23 17:49 60.32278 24.93041 174 ft 13 kts 82°
2026-04-23 17:50 60.32232 24.93198 173 ft 14 kts 105°
2026-04-23 17:50 60.32370 24.93548 176 ft 18 kts 47°
2026-04-23 17:50 60.32458 24.93738 177 ft 19 kts 47°
2026-04-23 17:51 60.32551 24.93945 176 ft 20 kts 49°
2026-04-23 17:51 60.32650 24.94163 177 ft 22 kts 46°
2026-04-23 17:51 60.32870 24.94641 180 ft 24 kts 48°
2026-04-23 17:52 60.32984 24.94902 182 ft 26 kts 49°
2026-04-23 17:52 60.33207 24.95410 192 ft 20 kts 76°
2026-04-23 17:52 60.33144 24.95634 191 ft 20 kts 136°
2026-04-23 17:53 60.32977 24.95880 183 ft 14 kts 150°
2026-04-23 17:53 60.32892 24.95980 180 ft 14 kts 150°
2026-04-23 17:53 60.32801 24.96086 179 ft 16 kts 150°
2026-04-23 17:54 60.32702 24.96200 178 ft 17 kts 150°
2026-04-23 17:54 60.32599 24.96319 179 ft 17 kts 150°
2026-04-23 17:54 60.32386 24.96571 180 ft 19 kts 150°
2026-04-23 17:55 60.32171 24.96821 171 ft 16 kts 151°
2026-04-23 17:55 60.32116 24.96861 172 ft 8 kts 192°
2026-04-23 17:55 60.32068 24.96784 172 ft 10 kts 226°
2026-04-23 17:56 60.32030 24.96729 172 ft 6 kts 189°
2026-04-23 17:56 60.31979 24.96731 173 ft 0 kts 175°
2026-04-23 17:56 60.31978 24.96732 173 ft 1 kts 175°
2026-04-23 17:57 60.31976 24.96732 173 ft 0 kts 175°